Location: B�rgermoos
(47.6500°N, 9.0667°E)
Time: 09:00:54
(UTC+00:00)

Cosmos 2278 Rocket - Pass Details

Date: 18 September 2020
Orbit: 841 x 845 km, 71.0° (Epoch: 24 October)

Event Time Altitude Azimuth Distance (km) Brightness Sun altitude
Exits shadow 21:22:24 20° 27° (NNE) 1,870 4.2 -34.9°
Drops below altitude 10° 21:24:01 10° 28° (NNE) 2,470 4.9 -35.0°
Sets 21:26:28 0° 28° (NNE) 3,409 5.7 -35.3°
